Weather History for Valparaiso, IN

Change the Weather History Date:

Friday, February 1, 2013

  Actual Average Record
Temperature  
Mean Temperature 10 °F 24 °F  
Max Temperature 17 °F 32 °F 52 °F (2006)
Min Temperature 2 °F 17 °F 2 °F (2013)
Degree Days  
Heating Degree Days 55 41  
Month to date heating degree days 55 41  
Since 1 July heating degree days 3416 3726  
Cooling Degree Days 0 0  
Month to date cooling degree days 0 0  
Year to date cooling degree days 0 0  
Moisture  
Dew Point 2 °F    
Average Humidity 70    
Maximum Humidity 86    
Minimum Humidity 58    
Precipitation  
Precipitation T in 0.04 in 0.36 in (2014)
Month to date precipitation T 0.04  
Year to date precipitation 2.29 1.79  
Sea Level Pressure  
Sea Level Pressure 30.28 in    
Wind  
Wind Speed 13 mph (WSW)    
Max Wind Speed 22 mph    
Max Gust Speed 26 mph    
Visibility 9 miles    
Events Snow    
T = Trace of Precipitation, MM = Missing Value Source: NWS Daily Summary

Daily Weather History Graph

Daily Weather History Graph

Search for Another Location

Airport:

Trip Planner

Search our weather history database for the weather conditions in past years. The results will help you decide how hot, cold, wet, or windy it might be!

Date:

Astronomy

Feb. 01, 2013 Rise Set
Actual Time 6:59 AM CST 5:04 PM CST
Civil Twilight 6:30 AM CST 5:33 PM CST
Nautical Twilight 5:56 AM CST 6:06 PM CST
Astronomical Twilight 5:24 AM CST 6:39 PM CST
Moon 11:16 PM CST (2/1) 9:27 AM CST (2/1)
Length of Visible Light 11h 03m
Length of Day
10h 05m
Waning Gibbous, 70% of the Moon is Illuminated
Feb 1
Waning Gibbous
Feb 3
Last Quarter
Feb 10
New
Feb 17
First Quarter
Feb 25
Full

Hourly Weather History & Observations

Time (CST) Temp. Windchill Dew Point Humidity Pressure Visibility Wind Dir Wind Speed Gust Speed Precip Events Conditions
12:03 AM 6.8 °F -11.3 °F -0.4 °F 72% 30.12 in 10.0 mi West 16.1 mph - N/A   Mostly Cloudy
12:43 AM 6.8 °F -11.8 °F -2.2 °F 67% 30.14 in 10.0 mi WNW 17.3 mph - N/A   Scattered Clouds
12:53 AM 6.1 °F -12.8 °F -2.0 °F 69% 30.19 in 10.0 mi West 17.3 mph 25.3 mph N/A   Partly Cloudy
1:08 AM 6.8 °F -13.4 °F -2.2 °F 67% 30.15 in 10.0 mi West 20.7 mph 26.5 mph N/A   Mostly Cloudy
1:53 AM 5.0 °F -14.7 °F -2.9 °F 70% 30.22 in 10.0 mi West 18.4 mph 24.2 mph N/A   Mostly Cloudy
3:50 AM 3.2 °F -17.6 °F -2.2 °F 78% 30.23 in 10.0 mi West 19.6 mph - N/A   Scattered Clouds
3:53 AM 3.9 °F -13.7 °F -2.9 °F 73% 30.28 in 10.0 mi West 13.8 mph 21.9 mph N/A   Partly Cloudy
4:53 AM 3.0 °F -16.7 °F -2.9 °F 76% 30.30 in 10.0 mi West 17.3 mph - N/A   Partly Cloudy
6:53 AM 1.9 °F -15.5 °F -4.0 °F 76% 30.33 in 10.0 mi West 12.7 mph - N/A   Clear
7:53 AM 3.0 °F -14.1 °F -4.0 °F 73% 30.36 in 10.0 mi WSW 12.7 mph - N/A   Clear
9:53 AM 7.0 °F -9.1 °F -2.0 °F 67% 30.39 in 10.0 mi WSW 12.7 mph - N/A   Clear
11:27 AM 8.6 °F -8.3 °F -0.4 °F 67% 30.35 in 10.0 mi WSW 15.0 mph 21.9 mph N/A   Mostly Cloudy
11:36 AM 8.6 °F -8.3 °F -0.4 °F 67% 30.34 in 10.0 mi SW 15.0 mph 23.0 mph N/A   Scattered Clouds
11:53 AM 9.0 °F -7.9 °F -0.9 °F 64% 30.39 in 10.0 mi WSW 15.0 mph 23.0 mph N/A   Partly Cloudy
12:53 PM 12.0 °F -4.5 °F 1.0 °F 61% 30.37 in 10.0 mi West 16.1 mph 21.9 mph N/A   Clear
1:53 PM 12.9 °F -3.9 °F 1.9 °F 62% 30.35 in 10.0 mi West 17.3 mph - N/A   Clear
2:53 PM 14.0 °F -0.2 °F 1.9 °F 59% 30.34 in 10.0 mi WSW 12.7 mph - N/A   Clear
3:29 PM 15.8 °F -0.2 °F 3.2 °F 58% 30.28 in 10.0 mi SW 17.3 mph 23.0 mph N/A   Mostly Cloudy
3:53 PM 12.9 °F -2.2 °F 3.0 °F 65% 30.33 in 10.0 mi WSW 13.8 mph 21.9 mph N/A   Mostly Cloudy
4:35 PM 12.2 °F -1.0 °F 3.2 °F 67% 30.28 in 10.0 mi WSW 10.4 mph - N/A   Scattered Clouds
4:53 PM 14.0 °F -0.2 °F 3.0 °F 62% 30.33 in 10.0 mi SW 12.7 mph - N/A   Partly Cloudy
5:53 PM 12.9 °F -0.2 °F 3.9 °F 67% 30.32 in 10.0 mi WSW 10.4 mph - N/A   Clear
6:53 PM 12.9 °F 1.6 °F 5.0 °F 71% 30.32 in 10.0 mi SW 8.1 mph - N/A   Clear
7:53 PM 14.0 °F 2.0 °F 6.1 °F 71% 30.30 in 10.0 mi SSW 9.2 mph - N/A   Overcast
8:53 PM 15.1 °F 3.3 °F 7.0 °F 70% 30.28 in 10.0 mi SSW 9.2 mph - N/A   Scattered Clouds
9:53 PM 16.0 °F 4.4 °F 7.0 °F 68% 30.27 in 10.0 mi SSW 9.2 mph - N/A   Overcast
10:53 PM 16.0 °F 5.3 °F 10.0 °F 77% 30.25 in 4.0 mi SW 8.1 mph - 0.00 in Snow Light Snow
11:08 PM 15.8 °F 5.1 °F 10.4 °F 79% 30.20 in 2.5 mi SW 8.1 mph - 0.00 in Snow Light Snow
11:24 PM 15.8 °F 6.1 °F 12.2 °F 86% 30.20 in 3.0 mi SSW 6.9 mph - 0.00 in Snow Light Snow
11:35 PM 15.8 °F 7.2 °F 12.2 °F 86% 30.20 in 2.5 mi SSW 5.8 mph - 0.00 in Snow Light Snow
11:53 PM 17.1 °F 8.7 °F 12.9 °F 84% 30.24 in 1.8 mi SSW 5.8 mph - 0.00 in Snow Light Snow